EHI
0 0 0 0 0 0 0 0 0 0 0 0 0 0 0 0 0 0 0 0 0 0 0 0 0 0 0 0 0 0 0 0 0 0 0 0 0 0 0 0 0 0 0
0 0 0 0 0 0 0 0 0 0 0 0 0 0 0 0 0 0 0 0 0 0 0 0 0 0 0 0 0 0 0 0 0 0 0 0 0 0 0 0 0 0 0
0 0 0 0 0 0 0 0 0 0 0 0 0 0 0 0 0 0 0 0 0 0 0 0 0 0 0 0 0 0 0 0 0 0 0 0 0 0 0 0 0 0 0
0 0 0 0 0 0 0 0 0 0 0 0 0 0 0 0 0 0 0 0 0 0 0 0 0 0 0 0 0 0 0 0 0 0 0 0 0 0 0 0 0 0 0
0 0 0 0 0 0 0 0 0 0 0 0 0 0 0 0 0 0 0 0 0 0 0 0 0 0 0 0 0 0 0 0 0 0 0 0 0 0 0 0 0 0 0
0 0 0 0 0 0 0 0 0 0 0 0 0 0 0 0 0 0 0 0 0 0 0 0 0 0 0 0 0 0 0 0 0 0 0 0 0 0 0 0 0 0 0
0 0 0 0 0 0 0 0 0 0 0 0 0 0 0 0 0 0 0 0 0 0 0 0 0 0 0 0 0 0 0 0 0 0 0 0 0 0 0 0 0 0 0
0 0 0 0 0 0 0 0 0 0 0 0 0 0 0 0 0 0 0 0 0 0 0 0 0 0 0 0 0 0 0 0 0 0 0 0 0 0 0 0 0 0 0
0 0 0 0 0 0 0 0 0 0 0 0 0 0 0 0 0 0 0 0 0 0 0 0 0 0 0 0 0 0 0 0 0 0 0 0 0 0 0 0 0 0 0
0 0 0 0 0 0 0 0 0 0 0 0 0 0 0 0 0 0 0 0 0 0 0 0 0 0 0 0 0 0 0 0 0 0 0 0 0 0 0 0 0 0 0
0 0 0 0 0 0 0 0 0 0 0 0 0 0 0 0 0 0 0 0 0 0 0 0 0 0 0 0 0 0 0 0 0 0 0 0 0 0 0 0 0 0 0
0 0 0 0 0 0 0 0 0 0 0 0 0 0 0 0 0 0 0 0 0 0 0 0 0 0 0 0 0 0 0 0 0 0 0 0 0 0 0 0 0 0 0
0 0 0 0 0 0 0 0 0 0 0 0 0 0 0 0 0 0 0 0 0 0 0 0 0 0 0 0 0 0 0 0 0 0 0 0 0 0 0 0 0 0 0
0 0 0 0 0 0 0 0 0 0 0 0 0 0 0 0 0 0 0 0 0 0 0 0 0 0 0 0 0 0 0 0 0 0 0 0 0 0 0 0 0 0 0
0 0 0 0 0 0 0 0 0 0 0 0 0 0 0 0 0 0 0 0 0 0 0 0 0 0 0 0 0 0 0 0 0 0 0 0 0 0 0 0 0 0 0
0 0 0 0 0 0 0 0 0 0 0 0 0 0 0 0 0 0 0 0 0 0 0 0 0 0 0 0 0 0 0 0 0 0 0 0 0 0 0 0 0 0 0
0 0 0 0 0 0 0 0 0 0 0 0 0 0 0 0 0 0 0 0 0 0 0 0 0 0 0 0 0 0 0 0 0 0 0 0 0 0 0 0 0 0 0
0 0 0 0 0 0 0 0 0 0 0 0 0 0 0 0 0 0 0 0 0 0 0 0 0 0 0 0 0 0 0 0 0 0 0 0 0 0 0 0 0 0 0
0 0 0 0 0 0 0 0 0 0 0 0 0 0 0 0 0 0 0 0 0 0 0 0 0 0 0 0 0 0 0 0 0 0 0 0 0 0 0 0 0 0 0
0 0 0 0 0 0 0 0 0 0 0 0 0 0 0 0 0 0 0 0 0 0 0 0 0 0 0 0 0 0 0 0 0 0 0 0 0 0 0 0 0 0 0
0 0 0 0 0 0 0 0 0 0 0 0 0 0 0 0 0 0 0 0 0 0 0 0 0 0 0 0 0 0 0 0 0 0 0 0 0 0 0 0 0 0 0
0 0 0 0 0 0 0 0 0 0 0 0 0 0 0 0 0 0 0 0 0 0 0 0 0 0 0 0 0 0 0 0 0 0 0 0 0 0 0 0 0 0 0
0 0 0 0 0 0 0 0 0 0 0 0 0 0 0 0 0 0 0 0 0 0 0 0 0 0 0 0 0 0 0 0 0 0 0 0 0 0 0 0 0 0 0
0 0 0 0 0 0 0 0 0 0 0 0 0 0 0 0 0 0 0 0 0 0 0 0 0 0 0 0 0 0 0 0 0 0 0 0 0 0 0 0 0 0 0
0 0 0 0 0 0 0 0 0 0 0 0 0 0 0 0 0 0 0 0 0 0 0 0 0 0 0 0 0 0 0 0 0 0 0 0 0 0 0 0 0 0 0
0 0 0 0 0 0 0 0 0 0 0 0 0 0 0 0 0 0 0 0 0 0 0 0 0 0 0 0 0 0 0 0 0 0 0 0 0 0 0 0 0 0 0
Wind_Speed
5 4 3 3 3 3 3 3 3 3 4 4 4 5 6 6 6 5 5 14 16 16 16 15 14 13 13 12 11 10 10 9 8 8 7 7 6 6 6 5 5 5 5
6 6 5 5 5 4 4 4 5 5 4 4 5 6 7 6 6 7 6 9 17 19 19 18 18 17 16 15 14 13 13 12 11 10 10 9 8 8 8 7 7 7 7
7 7 6 6 6 5 5 4 4 3 4 5 7 7 7 7 7 8 7 6 8 16 21 21 21 20 19 18 17 16 15 15 14 13 12 11 11 10 10 9 9 9 8
8 8 7 8 7 5 5 5 5 4 6 6 6 6 6 6 9 9 8 8 7 8 14 22 23 23 22 21 20 19 18 17 16 15 15 14 13 13 12 11 11 10 10
10 9 9 8 7 6 6 7 6 5 7 8 8 7 7 8 9 10 11 11 10 10 9 17 25 25 24 24 23 22 21 20 19 18 17 16 15 15 14 13 13 12 12
10 10 8 8 7 6 7 7 8 7 6 7 7 8 7 8 8 10 12 11 11 13 13 12 12 16 25 25 25 24 23 22 21 20 19 18 17 17 16 15 14 14 13
10 11 10 8 8 9 11 10 8 8 7 4 3 6 7 10 13 13 12 12 13 14 12 12 10 9 10 23 26 26 25 24 23 22 21 20 19 19 18 17 16 16 15
11 11 12 10 9 9 10 10 9 6 5 6 5 3 6 6 7 12 11 11 13 9 11 13 11 11 9 8 15 26 26 26 25 24 23 22 21 21 20 19 18 18 17
11 11 12 12 10 11 11 13 12 11 9 7 8 7 5 8 4 4 7 9 9 8 9 8 11 12 13 11 10 21 28 28 27 27 25 24 23 22 22 21 20 20 19
11 12 12 12 12 11 13 13 13 12 11 9 6 10 11 6 4 6 4 4 6 8 9 10 11 12 13 10 14 22 27 29 29 29 27 26 25 24 23 23 22 21 20
9 11 12 11 12 12 13 13 12 13 12 13 9 6 10 9 8 8 11 6 5 7 9 11 10 9 11 11 11 18 27 28 29 30 29 28 26 26 25 24 23 22 21
5 9 10 11 12 11 13 14 13 13 13 14 12 9 8 7 8 11 15 11 10 7 9 10 10 10 10 11 15 24 28 28 29 29 29 28 27 26 25 25 23 22 22
5 7 8 9 10 11 12 12 12 13 15 15 15 13 13 13 8 8 12 12 10 6 7 8 10 10 11 10 12 25 27 29 29 29 29 28 27 27 26 25 24 23 23
7 7 7 8 10 11 12 11 11 13 13 15 17 16 13 13 12 12 11 10 11 10 7 9 5 10 10 10 15 25 17 28 29 29 29 29 28 27 26 26 25 24 23
6 7 7 8 9 10 11 11 10 12 12 14 15 16 15 13 12 12 12 11 12 13 13 8 8 9 11 11 17 13 12 23 29 29 29 29 29 28 27 26 25 24 23
7 7 8 8 9 9 10 10 10 12 13 13 12 14 15 13 12 12 12 12 13 14 16 5 8 7 10 11 18 14 13 25 29 29 29 29 29 29 28 27 26 25 24
7 8 8 8 9 9 9 9 11 12 13 14 13 14 17 14 13 12 11 12 13 13 19 14 6 7 11 11 11 10 11 13 13 26 28 29 29 28 28 27 27 26 25
8 8 8 9 10 10 10 10 12 12 13 14 14 14 16 13 16 13 12 15 14 14 16 21 8 7 12 11 11 10 10 11 10 21 27 28 28 28 28 27 27 26 26
9 9 9 10 11 11 11 11 12 13 13 14 13 14 15 14 16 13 14 15 13 13 14 17 14 7 8 8 9 9 10 9 10 16 23 26 28 28 28 28 28 27 26
10 10 10 11 11 11 11 12 12 13 13 13 13 14 14 14 16 15 14 15 13 14 13 15 14 8 8 6 8 9 10 9 10 10 15 18 22 27 28 28 28 27 26
11 11 11 12 12 10 10 12 12 13 13 14 14 14 15 18 22 18 14 12 13 13 13 13 14 11 10 8 9 8 11 8 9 9 8 10 9 9 10 20 25 26 25
11 11 11 13 13 11 20 26 21 13 12 13 13 13 13 17 21 27 28 26 22 17 16 15 14 14 13 12 10 10 10 9 9 7 10 11 9 10 8 7 18 24 24
12 12 11 12 14 16 26 27 28 19 13 11 11 11 10 11 18 13 19 26 25 28 27 18 18 17 14 13 13 13 12 11 11 7 8 10 9 11 8 12 24 26 26
12 12 13 13 14 17 26 28 28 18 12 11 11 11 12 12 12 14 12 13 14 15 17 15 14 14 13 11 13 15 14 12 8 7 9 7 7 9 9 9 20 25 25
13 12 13 13 15 17 25 28 27 11 10 11 11 11 12 12 19 23 15 13 14 13 19 26 25 21 23 24 18 11 12 11 10 9 10 8 6 7 7 8 13 23 24
14 14 14 13 15 16 23 27 26 10 10 10 9 10 17 18 20 22 14 12 14 12 10 11 14 17 16 17 24 17 13 12 7 7 9 9 6 6 5 7 9 9 12
Wind_Direction
182 183 189 191 195 187 193 202 208 214 222 228 231 233 238 236 237 236 249 261 266 268 268 267 264 260 258 257 255 254 254 255 258 260 263 269 274 280 286 293 302 308 314
185 187 194 200 204 200 200 204 211 218 228 230 240 237 240 240 240 238 235 254 260 264 266 265 264 262 259 257 255 253 252 252 254 256 258 261 265 269 274 280 285 289 296
190 193 200 208 211 202 201 207 219 223 237 238 244 244 243 241 242 241 239 235 248 258 262 264 264 263 261 259 256 254 252 251 252 253 255 257 259 263 266 270 274 278 282
195 196 207 217 207 195 198 206 211 220 234 237 244 245 243 242 243 243 241 239 235 242 253 257 260 261 261 259 257 254 251 250 250 251 252 254 255 257 260 263 267 271 275
203 205 216 219 198 199 207 217 212 209 229 237 243 247 243 244 245 246 243 239 236 235 234 250 253 255 257 258 258 256 253 250 248 249 249 251 253 254 256 258 262 265 269
208 212 222 219 198 204 215 216 224 216 225 236 252 257 247 243 240 240 243 242 237 235 232 234 242 251 251 253 254 255 254 251 248 247 247 248 250 252 253 255 257 260 263
212 214 226 219 208 217 224 219 219 224 231 209 246 276 261 242 241 240 237 237 238 235 230 229 228 228 244 249 251 251 251 251 249 247 246 246 247 249 250 252 253 254 257
218 219 224 227 218 223 228 222 212 216 222 185 191 239 295 294 244 237 233 232 236 233 231 230 226 225 226 230 243 248 251 251 250 248 246 245 246 247 248 249 251 252 253
226 227 227 228 225 221 229 227 219 218 228 212 198 194 224 250 293 261 235 233 232 228 231 230 228 227 226 225 231 244 246 247 248 248 247 245 245 246 247 248 249 250 251
228 229 232 230 230 227 231 232 224 222 223 229 212 219 227 212 236 290 262 244 238 231 229 230 231 229 227 226 229 232 240 243 245 245 245 245 244 245 246 246 247 248 249
234 234 233 233 234 233 233 234 230 224 222 229 221 208 229 238 230 247 269 256 241 230 227 226 225 225 225 224 226 233 238 239 240 241 241 243 244 245 246 247 247 248 249
248 241 237 236 238 238 237 236 235 230 230 230 230 219 208 210 212 221 246 255 253 233 221 224 223 222 223 224 226 233 236 237 238 238 239 240 242 245 247 248 249 250 251
265 255 241 240 241 241 242 240 237 236 234 233 232 232 230 230 219 219 239 254 255 246 226 225 219 218 221 222 227 235 238 237 236 236 237 238 240 243 245 247 248 250 251
268 266 252 246 246 245 245 242 240 240 238 236 237 234 236 235 228 226 231 245 264 262 234 230 217 217 219 220 225 233 238 239 238 237 237 237 238 240 241 244 245 247 250
275 273 267 260 256 252 249 246 245 245 242 239 239 237 237 238 232 231 229 225 238 262 264 215 206 213 216 219 228 228 226 237 241 240 238 237 237 238 239 241 243 244 246
279 280 278 271 266 261 256 251 251 250 247 245 241 240 240 239 237 232 230 229 226 240 261 231 205 197 209 219 227 228 225 234 241 243 242 240 238 238 238 239 241 242 244
284 280 278 275 272 267 261 256 254 252 251 251 246 243 243 238 238 234 230 230 230 229 250 257 203 199 204 216 226 225 222 229 236 241 243 241 240 239 239 239 240 241 243
284 279 279 277 274 271 265 259 261 258 253 254 250 246 247 242 239 236 232 232 232 228 239 256 239 205 213 213 218 223 225 225 224 237 242 243 242 241 240 240 241 241 243
286 283 279 277 276 273 270 265 262 262 257 256 253 249 249 244 245 240 235 235 233 232 233 247 251 217 218 213 217 226 228 227 222 232 240 244 245 244 243 243 242 241 242
286 285 280 277 276 274 272 270 267 265 263 259 255 251 250 245 245 243 240 238 234 233 233 240 248 233 221 198 207 219 229 225 230 229 236 239 243 245 246 245 243 242 243
282 281 281 281 278 275 273 272 267 263 261 262 258 253 250 249 248 249 244 238 231 233 233 237 243 238 225 204 212 209 226 224 226 220 225 232 236 238 239 246 245 244 244
285 282 279 281 282 280 287 291 289 276 264 261 262 258 254 259 261 261 258 252 236 229 230 232 237 236 230 219 212 211 218 220 229 205 217 228 222 232 229 227 242 246 247
288 286 283 282 282 284 291 294 293 289 278 270 266 265 264 260 265 255 259 261 257 249 236 227 234 234 229 216 210 213 213 212 221 195 196 225 217 228 225 232 237 240 243
290 289 289 287 286 288 295 298 297 292 282 275 269 265 266 265 259 260 252 250 249 252 252 244 236 234 228 217 208 212 214 220 224 205 193 218 208 221 222 222 236 238 239
294 291 289 289 290 292 296 298 297 287 280 276 270 265 266 265 268 271 264 255 252 249 255 252 247 241 233 227 214 209 209 213 222 214 200 212 210 213 219 221 229 236 239
295 295 293 290 289 290 294 299 299 288 283 280 273 265 270 272 272 272 264 257 257 251 241 248 251 252 243 236 228 212 205 211 209 209 192 198 202 193 223 220 219 225 237